Regional Weather Roundup
Issued by NWS Glasgow, MT

Home | Current Version | Previous Version | Text Only | Print | Product List | Glossary On
Versions: 1 2 3 4 5 6 7 8 9 10 11 12 13 14 15 16 17 18 19 20 21 22 23 24 25 26 27 28 29 30 31 32 33 34 35 36 37 38 39 40 41 42 43 44 45 46 47 48 49 50
000
ASUS45 KGGW 012115
RWRGGW
HOURLY REGIONAL WEATHER ROUNDUP FOR NORTHEAST MONTANA
NATIONAL WEATHER SERVICE GLASGOW MONTANA
300 PM MDT WED JUL 01 2015

NOTE: "FAIR" INDICATES FEW OR NO CLOUDS BELOW 12,000 FEET WITH NO
SIGNIFICANT WEATHER AND/OR OBSTRUCTIONS TO VISISBILITY.

NORTHEAST MONTANA


CITY           SKY/WX    TMP DP  RH WIND       PRES   REMARKS
GLASGOW        MOSUNNY   81  58  45 W8        29.97F HAZE
PLENTYWOOD       N/A     78  53  41 N3          N/A
WOLF POINT     PTSUNNY   81  60  48 SE5       29.96F HAZE
JORDAN           N/A     85  57  38 N10       29.99F
WINNETT          N/A     87  50  27 NE6         N/A
SIDNEY         SUNNY     79  61  53 N5        29.98F
GLENDIVE       MOSUNNY   79  59  50 SE3       30.00S
MALTA            N/A     76  68  76 W5G13       N/A
SCOBEY           N/A     80  54  40 N6        29.98

FORT PECK REPORTS


CITY           SKY/WX    TMP DP  RH WIND       PRES   REMARKS
FORT PECK        N/A     79  66  64 S7          N/A
THE PINES        N/A     83  57  41 E3          N/A

SOUTHEAST MONTANA


CITY           SKY/WX    TMP DP  RH WIND       PRES   REMARKS
BILLINGS       MOSUNNY   90  47  22 VRB6      30.00F
MILES CITY     MOSUNNY   86  61  42 CALM      29.97F
BAKER          SUNNY     76  62  62 VRB3      30.03S
LIVINGSTON     MOSUNNY   90  46  21 W8G18     30.06F

CENTRAL MONTANA


CITY           SKY/WX    TMP DP  RH WIND       PRES   REMARKS
HAVRE          CLOUDY    74  58  57 W6        30.04F
LEWISTOWN      MOSUNNY   87  49  26 NW10G17   30.07F
GREAT FALLS    PTSUNNY   89  46  22 N13       30.04S
CUT BANK       MOSUNNY   76  53  44 N15G24    30.13R
HELENA         MOSUNNY   93  42  17 W14G24    30.02F
BUTTE          SUNNY     83  39  21 NW5       30.16F
BOZEMAN        SUNNY     86  46  24 NW14      30.08F

WESTERN MONTANA


CITY           SKY/WX    TMP DP  RH WIND       PRES   REMARKS
MISSOULA       SUNNY     91  40  16 W3        30.02F
KALISPELL      NOT AVBL

NORTH DAKOTA


CITY           SKY/WX    TMP DP  RH WIND       PRES   REMARKS
WILLISTON      SUNNY     77  58  51 VRB7      29.98F HAZE
DICKINSON      MOSUNNY   74  61  63 NW5       30.00S
MINOT          MOSUNNY   73  62  68 NW3       29.96F
BISMARCK       CLOUDY    76  64  66 SE6       29.95F

SOUTHERN SASKATCHEWAN


CITY           SKY/WX    TMP DP  RH WIND       PRES   REMARKS
REGINA         CLOUDY    73  59  60 NW7       29.97F SMOKE
ESTEVAN        CLOUDY    73  63  68 N5        29.97F SMOKE
SWIFT CURRENT  PTSUNNY   75  57  53 N9        30.00S HAZE



USA.gov is the U.S. government's official web portal to all federal, state and local government web resources and services.